Date String (YYYY-MM-DD hh:mm:ss) UTC,Instrument flags,Ambient pressure (hPa),Sample flow (lpm),Bypass flow (lpm),Sample temperature (°C),Ambient temperature (°C),ASC tube jacket temperature (°C),LED temperature (°C),Box temperature (°C),Sample RH (%),Span deviation,Mass concentration (μg/m³),Mass concentration (μg/m³),Mass concentration (μg/m³)
DateTimeUTC,F1_M11,P_M11,Q1_M11,Q2_M11,T1_M11,T2_M11,T3_M11,T4_M11,T5_M11,U1_M11,ZSPAN_M11,X2_M11,X0_M11,X1_M11
2023-04-06 20:00:00,,0834.1,4.99,0.00,22.0,20.4,00.0,30.4,23.5,07.4,0000.0,0002.62,0005.85,0001.73
2023-04-06 20:01:00,,0834.1,5.00,0.00,22.0,20.4,00.0,30.4,23.4,07.4,0000.0,0002.65,0005.91,0001.74
2023-04-06 20:02:00,,0834.1,5.01,0.00,22.0,20.4,00.0,30.3,23.4,07.7,0000.0,0002.62,0006.19,0001.75
2023-04-06 20:03:00,,0834.1,4.99,0.00,22.0,20.4,00.0,30.3,23.4,07.7,0000.0,0002.59,0006.97,0001.75
2023-04-06 20:04:00,,0834.1,5.00,0.00,22.0,20.3,00.0,30.3,23.4,06.9,0000.0,0002.55,0006.90,0001.75
2023-04-06 20:05:00,,0834.0,5.00,0.00,22.0,20.3,00.0,30.3,23.4,06.9,0000.0,0002.56,0006.23,0001.75
2023-04-06 20:06:00,,0834.1,5.00,0.00,22.0,20.3,00.0,30.3,23.4,07.2,0000.0,0002.54,0005.94,0001.75
2023-04-06 20:07:00,,0834.1,5.00,0.00,22.0,20.3,00.0,30.3,23.4,07.9,0000.0,0002.54,0005.96,0001.76
2023-04-06 20:08:00,,0834.1,5.01,0.00,22.0,20.4,00.0,30.3,23.4,07.7,0000.0,0002.62,0006.08,0001.77
2023-04-06 20:09:00,,0834.2,5.00,0.00,21.9,20.4,00.0,30.3,23.4,07.6,0000.0,0002.65,0005.93,0001.79
2023-04-06 20:10:00,,0834.1,5.00,0.00,21.9,20.4,00.0,30.3,23.4,07.2,0000.0,0002.64,0005.85,0001.78
2023-04-06 20:11:00,,0834.1,4.99,0.00,21.9,20.4,00.0,30.3,23.4,07.3,0000.0,0002.64,0005.98,0001.79
2023-04-06 20:12:00,,0834.1,4.99,0.00,21.9,20.3,00.0,30.3,23.4,07.3,0000.0,0002.65,0006.20,0001.79
2023-04-06 20:13:00,,0834.1,5.01,0.00,21.9,20.3,00.0,30.3,23.4,07.0,0000.0,0002.62,0005.72,0001.79
2023-04-06 20:14:00,,0834.1,5.01,0.00,21.9,20.2,00.0,30.3,23.3,06.8,0000.0,0002.66,0005.16,0001.80
2023-04-06 20:15:00,,0834.1,5.01,0.00,21.9,20.2,00.0,30.3,23.3,06.9,0000.0,0002.76,0006.07,0001.81
2023-04-06 20:16:00,,0834.1,4.99,0.00,21.9,20.2,00.0,30.3,23.3,07.0,0000.0,0002.76,0006.16,0001.82
2023-04-06 20:17:00,,0834.1,4.99,0.00,21.9,20.3,00.0,30.3,23.3,07.0,0000.0,0002.80,0006.33,0001.81
2023-04-06 20:18:00,,0834.0,5.00,0.00,21.9,20.3,00.0,30.3,23.3,06.8,0000.0,0002.79,0007.00,0001.82
2023-04-06 20:19:00,,0834.0,5.00,0.00,21.9,20.3,00.0,30.3,23.3,06.9,0000.0,0002.75,0006.94,0001.81
2023-04-06 20:20:00,,0834.0,5.01,0.00,21.9,20.3,00.0,30.3,23.3,07.0,0000.0,0002.79,0007.09,0001.82
2023-04-06 20:21:00,,0834.1,4.99,0.00,21.9,20.3,00.0,30.2,23.3,06.4,0000.0,0002.77,0007.08,0001.82
2023-04-06 20:22:00,,0834.1,5.00,0.00,21.9,20.3,00.0,30.2,23.3,06.7,0000.0,0002.78,0007.02,0001.81
2023-04-06 20:23:00,,0834.0,4.99,0.00,21.9,20.3,00.0,30.2,23.3,06.6,0000.0,0002.80,0006.81,0001.80
2023-04-06 20:24:00,,0834.0,5.01,0.00,21.9,20.2,00.0,30.2,23.3,06.6,0000.0,0002.86,0006.93,0001.82
2023-04-06 20:25:00,,0834.0,5.01,0.00,21.9,20.3,00.0,30.2,23.3,06.6,0000.0,0002.91,0006.82,0001.83
2023-04-06 20:26:00,,0834.0,5.01,0.00,21.9,20.3,00.0,30.2,23.4,06.6,0000.0,0002.87,0006.22,0001.83
2023-04-06 20:27:00,,0834.0,4.98,0.00,21.9,20.3,00.0,30.2,23.4,07.1,0000.0,0002.84,0006.46,0001.82
2023-04-06 20:28:00,,0834.0,5.01,0.00,21.9,20.4,00.0,30.2,23.4,06.8,0000.0,0002.84,0006.96,0001.83
2023-04-06 20:29:00,,0834.0,5.01,0.00,21.9,20.4,00.0,30.2,23.4,06.8,0000.0,0002.89,0006.64,0001.83
2023-04-06 20:30:00,,0834.0,5.00,0.00,21.9,20.4,00.0,30.2,23.4,06.5,0000.0,0002.92,0006.44,0001.84
2023-04-06 20:31:00,,0833.9,4.99,0.00,21.9,20.4,00.0,30.2,23.4,06.6,0000.0,0002.92,0006.37,0001.83
2023-04-06 20:32:00,,0834.0,5.00,0.00,21.9,20.4,00.0,30.2,23.4,06.8,0000.0,0002.95,0006.55,0001.84
2023-04-06 20:33:00,,0834.0,5.00,0.00,21.9,20.4,00.0,30.2,23.4,06.6,0000.0,0002.97,0006.82,0001.85
2023-04-06 20:34:00,,0834.0,5.00,0.00,21.9,20.4,00.0,30.2,23.4,06.6,0000.0,0002.98,0006.93,0001.86
2023-04-06 20:35:00,,0834.0,5.01,0.00,21.9,20.5,00.0,30.2,23.5,06.4,0000.0,0002.98,0007.00,0001.87
2023-04-06 20:36:00,,0833.9,5.01,0.00,21.9,20.5,00.0,30.2,23.5,06.6,0000.0,0002.94,0006.89,0001.88
2023-04-06 20:37:00,,0833.8,4.99,0.00,22.0,20.6,00.0,30.2,23.5,06.5,0000.0,0002.89,0006.75,0001.88
2023-04-06 20:38:00,,0833.9,5.00,0.00,22.0,20.6,00.0,30.3,23.5,06.8,0000.0,0002.85,0006.34,0001.89
2023-04-06 20:39:00,,0833.9,4.99,0.00,22.0,20.7,00.0,30.3,23.5,06.9,0000.0,0002.87,0006.62,0001.90
2023-04-06 20:40:00,,0833.8,4.99,0.00,22.0,20.7,00.0,30.3,23.6,07.2,0000.0,0002.84,0006.19,0001.91
2023-04-06 20:41:00,,0833.8,5.00,0.00,22.0,20.8,00.0,30.3,23.6,07.0,0000.0,0002.86,0006.13,0001.93
2023-04-06 20:42:00,,0833.8,5.01,0.00,22.0,20.8,00.0,30.3,23.6,06.7,0000.0,0002.84,0007.14,0001.95
2023-04-06 20:43:00,,0833.8,5.00,0.00,22.0,20.8,00.0,30.3,23.6,07.4,0000.0,0002.83,0007.75,0001.95
2023-04-06 20:44:00,,0833.7,4.99,0.00,22.1,20.8,00.0,30.3,23.6,07.1,0000.0,0002.87,0007.91,0001.95
2023-04-06 20:45:00,,0833.8,4.99,0.00,22.1,20.7,00.0,30.3,23.6,07.2,0000.0,0002.87,0008.17,0001.97
2023-04-06 20:46:00,,0833.7,4.99,0.00,22.1,20.7,00.0,30.3,23.6,07.2,0000.0,0002.79,0008.45,0001.96
2023-04-06 20:47:00,,0833.8,5.01,0.00,22.1,20.7,00.0,30.3,23.7,07.6,0000.0,0002.77,0008.41,0001.96
2023-04-06 20:48:00,,0833.8,5.01,0.00,22.1,20.7,00.0,30.3,23.6,07.3,0000.0,0002.76,0008.38,0001.96
2023-04-06 20:49:00,,0833.8,4.99,0.00,22.1,20.7,00.0,30.4,23.6,07.4,0000.0,0002.77,0008.31,0001.96
2023-04-06 20:50:00,,0833.8,5.00,0.00,22.1,20.8,00.0,30.4,23.6,07.3,0000.0,0002.74,0007.93,0001.96
2023-04-06 20:51:00,,0833.8,5.01,0.00,22.1,20.8,00.0,30.4,23.7,07.4,0000.0,0002.75,0008.18,0001.95
2023-04-06 20:52:00,,0833.8,4.99,0.00,22.1,20.8,00.0,30.4,23.7,07.3,0000.0,0002.78,0008.23,0001.93
2023-04-06 20:53:00,,0833.8,5.00,0.00,22.1,20.8,00.0,30.4,23.7,07.3,0000.0,0002.72,0007.47,0001.93
2023-04-06 20:54:00,,0833.8,5.00,0.00,22.1,20.8,00.0,30.4,23.6,07.2,0000.0,0002.72,0007.54,0001.93
2023-04-06 20:55:00,,0833.8,5.00,0.00,22.1,20.8,00.0,30.4,23.6,07.4,0000.0,0002.69,0007.64,0001.93
2023-04-06 20:56:00,,0833.8,5.00,0.00,22.1,20.8,00.0,30.4,23.6,07.4,0000.0,0002.74,0007.32,0001.93
2023-04-06 20:57:00,,0833.8,5.01,0.00,22.1,20.7,00.0,30.4,23.6,07.0,0000.0,0002.78,0007.51,0001.93
2023-04-06 20:58:00,,0833.8,5.00,0.00,22.1,20.7,00.0,30.4,23.7,06.6,0000.0,0002.81,0007.87,0001.94
2023-04-06 20:59:00,,0833.8,5.00,0.00,22.1,20.8,00.0,30.4,23.7,06.8,0000.0,0002.85,0008.15,0001.95
